Holland, MI

4:47 AM EST on December 06, 2016 (GMT -0500)
Tulip City

Weather History for KBIV - February, 2014

Change the Weather History Date:

Thursday, February 27, 2014

  Actual Average Record
Temperature  
Mean Temperature 6 °F 31 °F  
Max Temperature 19 °F 38 °F 52 °F (1998)
Min Temperature -7 °F 24 °F -9 °F (2015)
Degree Days  
Heating Degree Days 59 34  
Month to date heating degree days 1263 994  
Since 1 July heating degree days 5099 4468  
Cooling Degree Days 0 0  
Month to date cooling degree days 0 0  
Year to date cooling degree days 0 0  
Moisture  
Dew Point 2 °F    
Average Humidity 74    
Maximum Humidity 88    
Minimum Humidity 60    
Precipitation  
Precipitation T in 0.07 in 0.50 in (2013)
Month to date precipitation 1.67 1.72  
Year to date precipitation 3.96 3.81  
Sea Level Pressure  
Sea Level Pressure 29.85 in    
Wind  
Wind Speed 11 mph (NW)    
Max Wind Speed 30 mph    
Max Gust Speed 39 mph    
Visibility 2 miles    
Events Fog , Snow    
T = Trace of Precipitation, MM = Missing Value Source: NWS Daily Summary

Daily Weather History Graph

Daily Weather History Graph

Search for Another Location

Airport or City:

Trip Planner

Search our weather history database for the weather conditions in past years. The results will help you decide how hot, cold, wet, or windy it might be!

Date:

Astronomy

Feb. 27, 2014 Rise Set
Actual Time 7:23 AM EST 6:31 PM EST
Civil Twilight 6:54 AM EST 6:59 PM EST
Nautical Twilight 6:22 AM EST 7:32 PM EST
Astronomical Twilight 5:49 AM EST 8:05 PM EST
Moon 5:57 AM EST (2/27) 4:55 PM EST (2/27)
Length of Visible Light 12h 05m
Length of Day
11h 08m
Waning Crescent, 4% of the Moon is Illuminated
Feb 27
Waning Crescent
Mar 1
New
Mar 8
First Quarter
Mar 16
Full
Mar 23
Last Quarter

Hourly Weather History & Observations

Time (EST) Temp. Windchill Dew Point Humidity Pressure Visibility Wind Dir Wind Speed Gust Speed Precip Events Conditions
12:16 AM 18.0 °F 1.3 °F 10.9 °F 74% 29.55 in 2.0 mi West 20.7 mph 31.1 mph 0.00 in Snow Light Snow
12:24 AM 18.0 °F 1.3 °F 9.0 °F 68% 29.55 in 3.0 mi West 20.7 mph 38.0 mph 0.00 in Snow Light Snow
12:48 AM 19.4 °F 2.8 °F 6.8 °F 58% 29.54 in 9.0 mi West 21.9 mph 35.7 mph 0.00 in   Overcast
12:53 AM 19.0 °F 3.2 °F 7.0 °F 59% 29.57 in 10.0 mi West 19.6 mph 35.7 mph 0.00 in   Overcast
1:16 AM 18.0 °F 1.3 °F 10.0 °F 71% 29.53 in 1.8 mi WNW 20.7 mph 28.8 mph 0.00 in Snow Light Snow
1:24 AM 18.0 °F 2.2 °F 8.1 °F 65% 29.53 in 3.0 mi West 18.4 mph 26.5 mph 0.00 in Snow Light Snow
1:43 AM 17.1 °F -0.6 °F 10.0 °F 74% 29.54 in 1.0 mi WNW 23.0 mph 32.2 mph 0.00 in Snow Light Snow
1:45 AM 17.1 °F 1.0 °F 10.9 °F 77% 29.54 in 0.5 mi WNW 18.4 mph 32.2 mph 0.00 in Snow Snow
1:53 AM 16.0 °F 1.1 °F 12.0 °F 84% 29.58 in 0.2 mi WNW 15.0 mph 32.2 mph 0.00 in Fog , Snow Snow
2:01 AM 16.0 °F 1.1 °F 12.0 °F 84% 29.54 in 0.8 mi WNW 15.0 mph 23.0 mph 0.00 in Snow Light Snow
2:10 AM 16.0 °F 1.1 °F 10.0 °F 77% 29.54 in 1.2 mi WNW 15.0 mph 29.9 mph 0.00 in Snow Light Snow
2:16 AM 16.0 °F 1.7 °F 8.1 °F 71% 29.54 in 2.0 mi WNW 13.8 mph 26.5 mph 0.00 in Snow Light Snow
2:24 AM 16.0 °F 2.9 °F 7.0 °F 68% 29.54 in 5.0 mi WNW 11.5 mph 26.5 mph 0.00 in   Haze
2:39 AM 16.0 °F 1.1 °F 9.0 °F 74% 29.55 in 1.8 mi WNW 15.0 mph 28.8 mph 0.00 in Snow Light Snow
2:48 AM 17.6 °F 1.7 °F 8.6 °F 68% 29.55 in 2.0 mi WNW 18.4 mph 28.8 mph 0.00 in Snow Light Snow
2:53 AM 16.0 °F 1.7 °F 9.0 °F 74% 29.59 in 1.2 mi WNW 13.8 mph 27.6 mph 0.00 in Snow Light Snow
2:59 AM 16.0 °F -0.4 °F 8.1 °F 71% 29.55 in 2.0 mi NW 18.4 mph 26.5 mph 0.00 in Snow Light Snow
3:05 AM 16.0 °F 2.3 °F 8.1 °F 71% 29.55 in 5.0 mi WNW 12.7 mph 26.5 mph 0.00 in Snow Light Snow
3:13 AM 16.0 °F 1.7 °F 9.0 °F 74% 29.56 in 2.0 mi NW 13.8 mph 23.0 mph 0.00 in Snow Light Snow
3:15 AM 16.0 °F 0.6 °F 10.0 °F 77% 29.56 in 1.2 mi NW 16.1 mph 25.3 mph 0.00 in Snow Light Snow
3:25 AM 15.1 °F -1.1 °F 10.0 °F 80% 29.57 in 0.8 mi NW 17.3 mph 27.6 mph 0.00 in Snow Light Snow
3:34 AM 15.1 °F -2.9 °F 7.0 °F 70% 29.57 in 1.2 mi WNW 21.9 mph 29.9 mph 0.00 in Snow Light Snow
3:43 AM 15.1 °F -2.0 °F 6.1 °F 68% 29.58 in 2.0 mi NW 19.6 mph 28.8 mph 0.00 in Snow Light Snow
3:48 AM 15.8 °F -0.6 °F 6.8 °F 68% 29.58 in 1.0 mi NW 18.4 mph 29.9 mph 0.00 in Snow Light Snow
3:53 AM 14.0 °F -2.0 °F 9.0 °F 80% 29.63 in 0.5 mi NW 16.1 mph 29.9 mph 0.00 in Snow Snow
4:11 AM 14.0 °F -3.0 °F 8.1 °F 77% 29.60 in 0.8 mi WNW 18.4 mph 26.5 mph 0.00 in Snow Light Snow
4:24 AM 12.9 °F -3.9 °F 5.0 °F 71% 29.61 in 1.2 mi WNW 17.3 mph 27.6 mph 0.00 in Snow Light Snow
4:31 AM 12.9 °F -3.9 °F 3.9 °F 67% 29.61 in 2.0 mi NW 17.3 mph 27.6 mph 0.00 in Snow Light Snow
4:35 AM 14.0 °F -0.8 °F 3.9 °F 64% 29.61 in 3.0 mi NW 13.8 mph 27.6 mph 0.00 in Snow Light Snow
4:50 AM 12.2 °F -5.8 °F 5.0 °F 73% 29.63 in 1.8 mi NW 19.6 mph 31.1 mph 0.00 in Snow Light Snow
4:53 AM 12.9 °F -5.3 °F 7.0 °F 77% 29.67 in 1.5 mi NW 20.7 mph 31.1 mph 0.00 in Snow Light Snow
5:04 AM 12.0 °F -6.0 °F 7.0 °F 80% 29.64 in 1.0 mi NW 19.6 mph 29.9 mph 0.00 in Snow Light Snow
5:06 AM 12.0 °F -5.6 °F 7.0 °F 80% 29.64 in 0.8 mi NW 18.4 mph 29.9 mph 0.00 in Snow Light Snow
5:16 AM 12.0 °F -2.0 °F 7.0 °F 80% 29.65 in 1.2 mi NW 11.5 mph 28.8 mph 0.00 in Snow Light Snow
5:18 AM 12.0 °F -4.5 °F 6.1 °F 77% 29.65 in 2.5 mi NW 16.1 mph 25.3 mph 0.00 in Snow Light Snow
5:25 AM 12.0 °F -5.1 °F 5.0 °F 73% 29.66 in 3.0 mi NW 17.3 mph 29.9 mph 0.00 in Snow Light Snow
5:27 AM 12.0 °F -4.5 °F 5.0 °F 73% 29.66 in 1.8 mi NW 16.1 mph 29.9 mph 0.00 in Snow Light Snow
5:30 AM 10.9 °F -6.5 °F 6.1 °F 81% 29.66 in 1.0 mi NW 17.3 mph 27.6 mph 0.00 in Snow Light Snow
5:33 AM 10.9 °F -7.9 °F 7.0 °F 84% 29.66 in 0.5 mi NW 20.7 mph 39.1 mph 0.00 in Fog , Snow Snow
5:50 AM 10.4 °F -6.0 °F 6.8 °F 85% 29.68 in 0.2 mi NW 15.0 mph 28.8 mph 0.00 in Fog , Snow Snow
5:53 AM 10.0 °F -5.9 °F 6.1 °F 84% 29.72 in 0.5 mi NW 13.8 mph 28.8 mph 0.00 in Fog , Snow Snow
5:55 AM 10.0 °F -6.5 °F 6.1 °F 84% 29.68 in 0.8 mi NW 15.0 mph 28.8 mph 0.00 in Snow Light Snow
5:58 AM 10.9 °F -5.4 °F 6.1 °F 81% 29.68 in 1.8 mi NW 15.0 mph 24.2 mph 0.00 in Snow Light Snow
6:01 AM 10.9 °F -4.7 °F 3.9 °F 73% 29.68 in 3.0 mi NW 13.8 mph 24.2 mph 0.00 in Snow Light Snow
6:09 AM 10.9 °F -5.9 °F -0.0 °F 61% 29.69 in 7.0 mi NW 16.1 mph 25.3 mph 0.00 in Snow Light Snow
6:18 AM 10.9 °F -5.9 °F -0.9 °F 59% 29.70 in 6.0 mi NW 16.1 mph 31.1 mph 0.00 in Snow Blowing Snow
6:24 AM 10.0 °F -8.6 °F 1.9 °F 70% 29.71 in 1.8 mi WNW 19.6 mph 31.1 mph 0.00 in Snow Light Snow
6:33 AM 10.0 °F -7.1 °F 1.9 °F 70% 29.72 in 1.2 mi WNW 16.1 mph 28.8 mph 0.00 in Snow Light Snow
6:36 AM 10.0 °F -5.9 °F 1.9 °F 70% 29.72 in 2.0 mi NW 13.8 mph 25.3 mph 0.00 in Snow Light Snow
6:53 AM 9.0 °F -8.5 °F 1.9 °F 73% 29.78 in 1.2 mi NW 16.1 mph 28.8 mph 0.00 in Snow Light Snow
6:57 AM 9.0 °F -9.0 °F 3.0 °F 77% 29.74 in 0.8 mi NW 17.3 mph 28.8 mph 0.00 in Snow Light Snow
7:05 AM 8.1 °F -10.7 °F 3.9 °F 83% 29.75 in 0.5 mi NNW 18.4 mph 28.8 mph 0.00 in Fog , Snow Snow
7:19 AM 8.1 °F -7.7 °F 3.0 °F 80% 29.76 in 0.5 mi North 12.7 mph 28.8 mph 0.00 in Snow Snow
7:25 AM 7.0 °F -9.1 °F 3.0 °F 84% 29.77 in 0.8 mi NNW 12.7 mph 20.7 mph 0.00 in Snow Light Snow
7:53 AM 7.0 °F -11.0 °F 3.0 °F 84% 29.85 in 0.8 mi NNW 16.1 mph 27.6 mph 0.00 in Snow Light Snow
8:15 AM 7.0 °F -9.1 °F 1.9 °F 80% 29.83 in 1.2 mi NNW 12.7 mph 21.9 mph 0.00 in Snow Light Snow
8:33 AM 7.0 °F -7.5 °F 1.9 °F 80% 29.85 in 1.2 mi NNW 10.4 mph 21.9 mph 0.00 in Snow Light Snow
8:53 AM 6.1 °F -7.8 °F 1.0 °F 80% 29.91 in 1.5 mi NNW 9.2 mph 21.9 mph 0.00 in Snow Light Snow
9:00 AM 6.1 °F -10.2 °F 1.0 °F 80% 29.87 in 1.0 mi NNW 12.7 mph 24.2 mph 0.00 in Snow Light Snow
9:17 AM 7.0 °F -11.6 °F -2.9 °F 64% 29.89 in 2.0 mi NNW 17.3 mph 34.5 mph 0.00 in   Haze
9:27 AM 6.1 °F -12.8 °F -4.0 °F 63% 29.90 in 3.0 mi NNW 17.3 mph 29.9 mph 0.00 in   Haze
9:35 AM 6.1 °F -10.2 °F -2.9 °F 67% 29.91 in 2.0 mi NNW 12.7 mph 26.5 mph 0.00 in   Haze
9:50 AM 6.8 °F -12.4 °F -5.8 °F 56% 29.92 in 5.0 mi NNW 18.4 mph 24.2 mph 0.00 in Snow Light Snow
9:53 AM 7.0 °F -12.6 °F -5.1 °F 58% 29.96 in 4.0 mi NNW 19.6 mph 27.6 mph 0.00 in Snow Light Snow
10:04 AM 6.1 °F -11.6 °F -4.0 °F 63% 29.93 in 2.0 mi NNW 15.0 mph 33.4 mph 0.00 in   Haze
10:11 AM 6.1 °F -12.2 °F -2.9 °F 67% 29.94 in 1.5 mi NNW 16.1 mph 27.6 mph 0.00 in Snow Light Snow
10:18 AM 7.0 °F -8.3 °F -5.1 °F 58% 29.94 in 3.0 mi NNW 11.5 mph 24.2 mph 0.00 in Snow Light Snow
10:36 AM 6.1 °F -8.7 °F -2.9 °F 67% 29.95 in 2.0 mi NNW 10.4 mph 25.3 mph 0.00 in   Haze
10:46 AM 7.0 °F -11.6 °F -4.0 °F 61% 29.96 in 1.8 mi NNW 17.3 mph 27.6 mph 0.00 in   Haze
10:53 AM 7.0 °F -10.4 °F -2.9 °F 64% 30.01 in 1.2 mi NW 15.0 mph 27.6 mph 0.00 in   Haze
11:00 AM 7.0 °F -11.6 °F -2.9 °F 64% 29.97 in 2.0 mi NNW 17.3 mph 26.5 mph N/A   Haze
11:11 AM 7.0 °F -8.3 °F -4.0 °F 61% 29.98 in 6.0 mi NNW 11.5 mph 24.2 mph 0.00 in Snow Light Snow
11:53 AM 7.0 °F -12.1 °F -2.9 °F 64% 30.05 in 1.8 mi NNW 18.4 mph 32.2 mph 0.00 in Snow Light Snow
12:02 PM 8.1 °F -9.0 °F -4.0 °F 58% 30.01 in 3.0 mi NW 15.0 mph 25.3 mph 0.00 in Snow Light Snow
12:29 PM 7.0 °F -11.0 °F -2.9 °F 64% 30.03 in 1.8 mi NNW 16.1 mph 25.3 mph 0.00 in Snow Light Snow
12:36 PM 7.0 °F -9.8 °F -2.9 °F 64% 30.03 in 1.8 mi NNW 13.8 mph 25.3 mph 0.00 in Snow Light Snow
12:43 PM 8.1 °F -9.0 °F -2.0 °F 64% 30.03 in 2.5 mi NW 15.0 mph 21.9 mph 0.00 in Snow Light Snow
12:53 PM 8.1 °F -7.7 °F -2.9 °F 61% 30.08 in 1.8 mi NNW 12.7 mph 20.7 mph 0.00 in Snow Light Snow
1:10 PM 8.1 °F -7.7 °F -0.9 °F 67% 30.04 in 1.2 mi NNW 12.7 mph 25.3 mph 0.00 in Snow Light Snow
1:14 PM 8.1 °F -9.0 °F -2.0 °F 64% 30.04 in 2.0 mi NNW 15.0 mph 23.0 mph 0.00 in Snow Light Snow
1:22 PM 8.1 °F -8.4 °F -2.9 °F 61% 30.04 in 5.0 mi NW 13.8 mph 23.0 mph 0.00 in Snow Light Snow
1:39 PM 8.1 °F -10.2 °F -4.0 °F 58% 30.05 in 2.0 mi NNW 17.3 mph 25.3 mph 0.00 in Snow Light Snow
1:53 PM 8.1 °F -7.7 °F -2.0 °F 64% 30.10 in 2.5 mi NNW 12.7 mph 20.7 mph 0.00 in Snow Light Snow
2:00 PM 8.1 °F -7.7 °F -0.9 °F 67% 30.05 in 1.2 mi NNW 12.7 mph 20.7 mph 0.00 in Snow Light Snow
2:15 PM 8.1 °F -7.0 °F -0.9 °F 67% 30.05 in 1.8 mi North 11.5 mph 21.9 mph 0.00 in Snow Light Snow
2:42 PM 8.1 °F -7.0 °F -2.0 °F 64% 30.06 in 2.5 mi NNW 11.5 mph 20.7 mph 0.00 in Snow Light Snow
2:49 PM 8.6 °F -6.3 °F -2.2 °F 62% 30.06 in 2.0 mi NNW 11.5 mph 20.7 mph 0.00 in Snow Light Snow
2:53 PM 8.1 °F -5.3 °F -2.0 °F 64% 30.11 in 2.5 mi NNW 9.2 mph - 0.00 in Snow Light Snow
3:00 PM 8.1 °F -8.4 °F -0.9 °F 67% 30.07 in 4.0 mi NNW 13.8 mph 21.9 mph 0.00 in Snow Light Snow
3:06 PM 8.1 °F -7.7 °F -2.0 °F 64% 30.07 in 1.8 mi NNW 12.7 mph 21.9 mph 0.00 in Snow Light Snow
3:17 PM 8.1 °F -6.2 °F -0.9 °F 67% 30.08 in 2.0 mi NW 10.4 mph - 0.00 in Snow Light Snow
3:23 PM 8.1 °F -6.2 °F -0.9 °F 67% 30.08 in 1.2 mi NNW 10.4 mph - 0.00 in Snow Light Snow
3:30 PM 8.1 °F -3.2 °F -0.9 °F 67% 30.08 in 1.5 mi North 6.9 mph - 0.00 in Snow Light Snow
3:39 PM 8.1 °F -4.3 °F -0.0 °F 70% 30.09 in 1.0 mi NW 8.1 mph - 0.00 in Snow Light Snow
3:53 PM 8.1 °F -6.2 °F -0.0 °F 70% 30.14 in 1.5 mi NNW 10.4 mph 17.3 mph 0.00 in Snow Light Snow
4:01 PM 7.0 °F -9.1 °F -0.0 °F 73% 30.09 in 1.0 mi NNW 12.7 mph 19.6 mph 0.00 in Snow Light Snow
4:34 PM 8.1 °F -3.2 °F 1.0 °F 73% 30.11 in 1.8 mi Variable 6.9 mph - 0.00 in Snow Light Snow
4:51 PM 6.8 °F -7.8 °F -0.4 °F 72% 30.11 in 3.0 mi NNW 10.4 mph - 0.00 in Snow Light Snow
4:52 PM 7.0 °F -5.7 °F -0.0 °F 73% 30.16 in 3.0 mi NNW 8.1 mph - 0.00 in Snow Light Snow
4:57 PM 7.0 °F -7.5 °F -0.0 °F 73% 30.11 in 1.8 mi NNW 10.4 mph - 0.00 in Snow Light Snow
5:06 PM 7.0 °F -5.7 °F -0.0 °F 73% 30.11 in 1.2 mi NNW 8.1 mph - 0.00 in Snow Light Snow
5:10 PM 7.0 °F -4.5 °F -0.0 °F 73% 30.11 in 2.0 mi NNW 6.9 mph - 0.00 in Snow Light Snow
5:31 PM 7.0 °F -1.7 °F -0.9 °F 70% 30.12 in 6.0 mi NNW 4.6 mph - 0.00 in Snow Light Snow
5:53 PM 7.0 °F -3.3 °F -0.0 °F 73% 30.18 in 3.0 mi NNW 5.8 mph - 0.00 in Snow Light Snow
5:56 PM 7.0 °F -3.3 °F -0.0 °F 73% 30.13 in 1.8 mi NNW 5.8 mph - 0.00 in Snow Light Snow
6:05 PM 6.1 °F -4.3 °F -0.0 °F 76% 30.13 in 1.2 mi NNW 5.8 mph - 0.00 in Snow Light Snow
6:13 PM 6.1 °F -4.3 °F -0.0 °F 76% 30.13 in 1.8 mi NNW 5.8 mph - 0.00 in Snow Light Snow
6:31 PM 6.1 °F -4.3 °F -0.9 °F 73% 30.14 in 3.0 mi NNW 5.8 mph - 0.00 in Snow Light Snow
6:53 PM 5.0 °F -4.1 °F -0.0 °F 80% 30.19 in 2.0 mi North 4.6 mph - 0.00 in Snow Light Snow
7:15 PM 5.0 °F -4.1 °F -0.9 °F 76% 30.15 in 7.0 mi North 4.6 mph - 0.00 in Snow Light Snow
7:53 PM 3.9 °F - -0.9 °F 80% 30.22 in 6.0 mi Calm Calm - 0.00 in Snow Light Snow
8:53 PM 1.0 °F - -2.9 °F 83% 30.22 in 10.0 mi Calm Calm - 0.00 in   Overcast
9:30 PM -0.9 °F -8.9 °F -4.0 °F 87% 30.18 in 10.0 mi East 3.5 mph - N/A   Overcast
9:53 PM -2.0 °F -10.1 °F -5.1 °F 87% 30.24 in 10.0 mi East 3.5 mph - N/A   Scattered Clouds
10:53 PM -2.9 °F - -7.1 °F 82% 30.25 in 10.0 mi Calm Calm - N/A   Partly Cloudy
11:53 PM -5.1 °F -15.8 °F -9.0 °F 83% 30.25 in 10.0 mi East 4.6 mph - N/A   Clear